GFSGL_sfc_thetae_171.txt.gz
Theta_e
295 294 292 291 291 290 290 289 289 289 289 288 288 287 287 286 285 284 284 284 282 281 280 280 279 279 279 282 283 285 286 287 283 287 287 287 286 284 284 285 287 284 285
294 292 291 291 290 289 289 289 289 289 288 288 288 287 287 285 285 283 283 282 281 280 279 278 278 279 276 278 279 281 283 287 286 283 284 286 284 286 284 282 284 285 282
292 291 290 289 289 289 289 289 289 288 287 287 287 286 285 284 284 283 283 281 281 280 279 277 277 277 275 275 275 276 280 286 286 284 282 283 285 284 284 283 282 283 284
290 290 289 289 289 289 290 289 288 287 286 286 285 285 284 283 283 284 283 281 280 279 280 278 277 276 272 273 275 273 276 277 279 278 276 276 278 280 282 281 280 281 280
288 288 287 289 289 289 289 288 288 287 286 286 285 283 281 281 282 282 282 281 280 279 279 279 279 281 281 279 276 272 274 274 274 273 273 272 271 273 275 278 279 281 280
287 287 288 288 287 288 288 288 287 286 286 284 282 280 279 282 285 284 281 279 279 279 277 276 277 279 280 280 280 280 277 272 270 271 270 269 268 272 272 275 272 272 273
287 286 286 287 287 287 288 287 284 283 283 281 279 278 276 276 284 284 282 278 275 274 275 276 276 277 278 278 278 278 279 278 277 274 272 271 272 273 273 276 275 274 272
287 286 286 286 286 286 285 284 283 282 280 279 277 276 275 275 284 283 281 273 272 270 269 269 268 268 273 277 276 275 272 272 273 275 269 268 271 273 274 276 278 276 275
286 285 285 285 285 284 283 281 281 280 278 278 278 275 274 274 283 283 279 272 269 268 268 267 265 264 279 279 268 266 265 266 277 281 280 279 279 278 276 274 273 275 272
285 285 285 285 284 283 282 281 281 281 278 279 278 276 277 271 281 281 281 277 273 272 271 270 277 271 278 278 269 267 264 265 265 266 267 269 270 271 276 270 269 269 263
284 284 283 284 283 283 282 282 281 281 281 279 281 279 275 275 275 281 281 278 277 275 272 269 267 277 277 277 276 266 267 265 267 264 263 263 263 263 264 265 263 266 262
284 282 282 283 283 283 282 281 281 280 279 279 279 279 277 277 279 280 281 280 281 277 271 269 269 276 276 276 272 278 278 269 265 263 262 262 262 263 263 264 263 264 262
283 282 282 282 282 282 280 281 280 279 278 278 278 277 278 277 275 279 279 279 280 276 272 272 275 276 276 274 277 277 270 268 264 263 262 262 262 264 267 267 269 270 270
283 282 282 281 281 281 282 282 281 279 278 278 277 276 277 275 271 270 272 274 275 272 272 271 269 270 266 265 269 270 267 265 265 264 264 264 268 270 270 271 270 270 269
283 282 282 281 281 282 282 282 282 281 282 280 279 279 277 274 272 274 272 269 267 269 266 266 267 268 268 269 268 268 268 269 267 265 266 268 268 270 271 272 272 270 266
282 281 281 282 282 282 281 277 285 284 285 285 284 281 280 280 280 279 279 278 278 276 270 266 264 263 268 269 267 265 265 265 266 268 266 268 268 268 269 270 270 267 266
281 281 281 281 281 280 280 280 279 282 284 284 284 284 283 283 282 281 281 281 279 275 266 266 265 263 265 269 268 267 263 264 267 267 265 265 266 268 268 269 268 268 267
282 282 281 281 280 281 280 279 277 276 274 273 282 282 283 283 283 281 280 278 272 271 270 268 268 267 268 269 269 267 266 264 265 265 262 261 259 264 264 266 266 262 265
282 281 281 281 281 280 280 278 277 275 274 273 275 277 279 281 281 280 278 267 267 268 271 273 272 270 270 270 266 264 261 260 260 258 260 261 256 263 262 264 264 262 263
283 281 281 281 280 279 279 278 277 276 275 274 273 273 275 274 273 266 264 263 267 271 271 272 272 270 269 268 264 262 259 258 259 260 256 255 255 260 260 261 260 261 265
283 282 281 282 281 281 280 279 278 277 276 274 273 274 274 273 272 271 270 269 270 270 271 271 270 268 266 266 268 263 264 263 261 260 261 259 253 258 261 261 261 263 265
283 282 282 281 281 281 281 281 280 278 277 275 274 274 275 274 273 273 272 272 272 272 272 270 270 269 267 266 264 263 261 259 258 259 257 258 259 260 260 260 260 258 262
282 281 281 281 281 281 281 281 280 278 278 277 276 275 275 274 273 274 274 273 272 270 270 269 267 266 264 262 262 264 263 261 260 258 255 255 258 258 256 257 258 257 257
282 281 280 279 280 281 281 279 279 278 278 278 277 276 276 275 274 274 275 273 270 267 267 266 266 266 264 260 261 262 262 258 258 257 256 254 256 257 255 256 257 255 255
281 282 282 281 280 280 280 279 279 278 278 278 276 276 275 274 275 275 274 271 269 267 265 266 265 264 262 262 262 261 261 258 255 254 254 253 253 253 254 255 254 256 254
281 281 280 280 279 279 279 279 278 278 278 278 277 276 276 275 275 275 272 270 269 268 266 265 265 263 261 260 260 258 256 256 254 252 251 255 253 254 255 254 255 254 256

GFSGL_sfc_thetae_177.txt.gz
Theta_e
299 298 297 295 295 294 292 290 290 290 289 289 288 288 287 286 285 283 283 282 281 279 279 278 278 278 277 277 279 281 286 286 283 286 286 285 284 282 283 282 284 283 282
298 299 296 295 293 292 290 289 289 288 289 288 288 287 287 286 285 283 282 282 280 278 277 277 277 279 276 276 274 277 282 285 285 279 278 280 280 278 283 281 282 283 281
298 295 292 292 291 290 289 288 289 288 288 288 288 287 286 285 284 283 282 281 279 278 277 276 276 277 275 273 273 271 274 280 275 274 271 274 276 275 275 279 280 279 281
294 292 291 290 290 288 288 288 288 288 287 287 287 286 285 284 283 283 282 280 279 278 279 277 276 275 272 273 274 269 273 272 272 271 271 272 272 273 273 272 275 277 276
290 291 289 290 289 288 287 287 287 287 287 287 285 285 285 284 283 282 281 279 279 278 279 279 279 280 280 276 273 268 271 270 270 270 268 267 265 266 266 269 273 276 275
288 287 288 288 287 287 287 286 286 286 286 285 284 283 282 283 285 284 282 279 279 279 278 278 280 280 281 280 279 278 274 269 266 268 266 264 261 263 265 271 268 269 271
287 287 287 287 286 286 286 286 285 285 284 283 282 282 280 283 286 285 283 280 277 276 277 277 278 279 278 278 280 280 279 278 276 273 269 265 267 265 269 274 272 271 270
287 287 287 287 286 286 286 285 285 284 283 281 280 279 281 283 286 285 282 274 273 271 271 271 273 270 273 276 276 274 272 271 272 273 268 266 267 270 273 275 275 274 274
287 287 287 287 286 286 285 285 285 284 282 280 280 280 281 283 284 282 277 272 269 267 267 266 267 264 275 279 268 265 265 265 276 279 278 278 277 278 276 274 269 274 269
288 288 288 288 287 286 285 284 284 283 281 280 278 280 282 281 283 281 278 276 272 272 270 269 277 270 279 278 267 265 263 263 261 263 263 266 266 266 274 264 266 266 260
289 288 288 288 287 286 285 284 282 281 280 279 278 278 279 281 281 281 279 275 273 272 271 269 268 279 280 279 276 266 267 261 262 259 258 259 260 262 262 261 257 262 259
287 287 287 287 286 285 283 282 282 280 279 278 277 277 278 279 282 281 279 277 276 272 269 268 266 279 279 279 274 276 278 264 260 259 260 260 260 260 261 261 259 259 258
286 286 285 285 285 284 282 281 281 280 279 278 277 275 275 277 278 282 282 280 278 274 271 272 275 278 279 276 278 277 268 265 261 261 259 259 259 261 263 266 269 270 269
285 284 284 283 283 283 283 282 281 280 279 279 278 276 275 275 273 272 279 281 279 273 274 273 270 270 264 263 267 267 264 264 264 261 261 262 265 267 268 269 268 268 267
284 283 283 283 283 282 283 282 281 282 281 280 278 277 275 273 273 275 275 274 275 273 269 267 266 267 266 266 266 265 266 267 265 262 263 265 266 268 268 269 269 268 264
282 282 282 282 282 282 281 281 283 282 283 283 282 280 278 278 279 279 280 280 278 275 271 265 259 259 264 264 264 263 262 263 264 265 264 266 266 266 267 268 268 265 264
282 282 282 282 282 281 281 280 278 281 283 283 282 282 281 280 280 280 280 280 279 275 266 263 262 262 263 267 266 264 263 263 266 265 264 264 266 268 266 267 266 266 266
283 282 282 282 282 281 281 280 280 279 278 279 282 281 282 281 281 281 280 279 275 273 267 265 265 266 267 269 269 267 266 266 266 264 261 260 260 265 264 264 264 260 263
282 282 282 282 282 281 281 280 280 280 280 279 280 281 281 282 282 281 281 274 273 273 270 270 269 269 270 271 270 268 266 266 264 261 260 261 256 263 261 262 262 261 262
282 281 281 281 280 280 279 278 277 277 278 279 279 279 280 280 279 278 272 266 269 271 270 271 271 271 271 269 267 267 265 264 263 262 256 255 254 259 258 259 258 260 263
281 280 279 279 279 279 278 277 276 276 276 277 274 271 279 278 272 270 269 268 269 271 269 270 270 269 269 268 268 267 267 266 265 264 263 260 252 257 259 259 259 261 263
280 279 279 279 279 278 278 278 277 276 275 273 272 271 273 271 272 271 271 270 270 270 270 271 270 270 269 269 268 265 264 263 262 263 261 259 259 258 258 257 256 257 260
280 279 279 279 279 277 278 277 276 276 275 274 273 273 273 272 271 271 271 270 269 269 269 270 269 268 267 267 268 267 265 263 263 262 260 258 257 257 255 256 256 255 256
280 280 280 279 278 278 277 277 276 276 275 274 274 274 273 273 272 271 270 270 269 268 268 267 268 268 265 261 262 264 265 262 262 262 261 260 259 257 254 255 255 253 253
280 280 279 279 279 280 280 278 277 278 277 276 275 274 274 273 273 273 272 270 269 267 267 267 267 266 264 263 262 262 261 261 260 260 259 259 258 256 255 255 254 255 255
278 278 278 278 278 278 278 277 277 277 277 276 276 275 274 274 273 272 270 270 269 268 267 267 267 266 264 263 262 260 259 259 259 260 260 259 258 256 257 258 256 256 258

GFSGL_sfc_thetae_180.txt.gz
Theta_e
300 299 299 296 297 293 292 291 291 291 290 289 289 289 288 287 287 286 284 283 281 281 280 280 280 280 279 280 282 284 286 287 283 286 285 285 282 281 285 283 284 283 283
299 298 296 295 295 293 291 290 291 290 290 289 289 288 287 286 286 284 284 282 280 279 279 279 279 280 278 278 279 282 283 285 285 281 281 281 281 280 279 281 281 282 282
297 296 296 296 296 293 291 290 290 289 288 288 288 287 286 285 284 284 283 281 280 279 279 278 278 278 276 276 276 276 279 281 278 279 276 277 279 278 277 279 280 279 280
297 296 294 293 293 291 290 289 288 288 287 287 287 286 286 285 284 283 282 280 279 279 279 278 278 277 275 276 276 273 276 275 275 274 274 274 274 275 276 275 276 279 277
293 292 291 292 291 290 289 288 288 287 287 287 286 286 285 284 283 282 281 280 279 279 279 279 278 279 279 277 275 273 274 273 273 273 272 271 270 271 271 273 275 275 276
290 287 290 290 289 288 288 287 287 286 286 286 285 285 284 283 285 284 281 279 279 279 278 280 281 282 280 280 279 278 275 272 270 271 270 269 266 267 269 274 273 273 274
288 287 287 287 287 287 287 286 285 285 285 285 284 284 283 283 285 285 283 280 279 278 279 278 278 280 280 279 280 280 279 278 277 274 271 270 271 270 271 276 275 274 273
288 287 287 287 286 286 286 285 285 284 284 283 283 283 283 284 286 285 282 278 276 275 275 274 275 274 276 277 276 274 273 273 273 275 271 271 272 273 274 277 276 275 275
287 287 287 286 286 285 285 284 284 283 283 282 282 282 282 284 287 285 279 275 272 271 270 270 272 270 279 279 272 270 268 267 274 279 278 277 277 277 276 276 274 275 273
287 287 288 287 286 285 285 285 285 284 282 282 281 282 283 282 285 283 279 277 273 272 272 272 277 273 280 278 271 270 267 264 264 266 266 269 267 270 273 267 271 271 268
287 287 288 288 287 286 286 285 284 282 281 280 280 281 282 283 282 282 280 277 275 273 273 272 274 279 280 279 275 270 269 264 263 263 264 266 267 268 267 266 265 269 268
286 286 287 287 287 286 285 283 282 281 280 279 279 280 281 281 282 282 281 278 277 274 272 271 272 280 280 279 274 277 278 265 265 266 267 267 267 269 269 268 266 267 266
285 285 286 286 286 285 284 282 281 280 279 278 278 278 278 280 281 281 280 279 278 274 272 273 278 280 280 279 278 279 272 269 267 267 266 266 266 268 268 271 272 273 272
285 285 286 285 284 285 284 283 281 280 279 279 278 277 277 278 278 280 279 278 277 273 275 275 272 271 267 266 272 270 269 268 269 268 267 267 269 271 271 272 272 272 271
285 285 285 284 284 283 283 283 282 283 282 279 278 277 276 275 277 279 281 279 276 273 271 271 270 270 270 269 268 268 268 269 269 267 268 269 270 271 271 271 271 271 269
283 283 283 283 283 283 282 282 284 284 284 284 282 280 278 279 280 281 281 281 280 276 272 269 266 266 267 268 267 267 267 266 268 269 268 269 269 269 270 270 270 269 268
283 283 283 283 282 282 281 280 278 282 284 283 282 282 280 280 280 281 282 281 280 276 271 269 268 266 267 269 268 267 267 267 268 269 268 268 269 269 269 269 268 269 268
283 283 282 282 282 281 281 280 280 279 278 279 282 282 282 281 281 281 281 281 277 274 270 268 267 267 269 270 269 268 267 267 267 267 266 267 267 269 268 267 267 266 267
283 282 282 281 281 281 281 280 280 279 279 279 279 280 281 282 281 281 281 276 274 272 270 270 270 269 270 271 270 268 266 267 267 265 265 265 264 267 267 266 266 263 265
282 281 281 281 281 281 280 280 279 279 279 279 279 279 280 280 278 278 277 273 273 272 272 271 271 271 271 270 268 267 267 266 266 265 263 264 263 266 265 265 264 266 266
281 281 281 280 280 280 279 279 279 279 279 279 279 280 280 279 277 277 272 272 272 271 270 271 271 270 269 269 270 268 269 268 267 266 265 265 261 264 264 265 264 265 266
280 280 280 279 279 278 278 278 277 277 278 276 274 275 280 274 273 272 272 272 272 273 272 271 271 271 270 270 270 269 268 266 266 266 265 264 263 264 264 263 263 264 264
279 279 279 279 279 276 276 276 275 274 274 272 273 273 274 273 272 273 273 272 272 271 270 270 268 269 270 270 270 269 268 267 267 266 264 263 263 263 262 263 262 261 262
279 278 278 277 277 276 276 274 273 273 272 270 270 271 271 270 271 271 270 269 269 267 268 269 269 269 268 267 268 268 268 266 266 265 265 263 263 262 262 262 262 261 261
278 277 277 277 277 276 275 274 272 272 273 273 273 273 271 271 270 269 268 268 266 264 266 268 268 268 267 265 265 266 266 266 264 263 263 263 262 261 261 262 262 261 260
279 277 276 278 278 275 274 274 274 273 273 274 273 273 273 272 271 271 269 267 266 266 267 267 267 266 266 266 265 263 262 262 262 262 263 263 261 260 260 261 260 260 261

GFSGL_sfc_thetae_183.txt.gz
Theta_e
304 304 302 300 299 297 295 295 295 293 293 292 292 291 291 290 290 289 288 287 287 287 288 289 288 289 289 290 291 292 292 293 290 287 290 288 288 288 288 289 288 287 288
303 301 299 296 295 294 293 294 294 293 293 293 292 290 291 290 290 288 287 286 286 285 286 287 286 286 287 289 290 289 290 292 291 287 286 289 287 286 287 286 286 285 286
300 297 295 294 293 292 293 293 293 291 291 291 291 290 290 290 289 289 287 286 286 285 285 286 286 286 286 287 288 288 288 288 290 288 286 288 289 287 286 285 285 286 284
298 296 294 294 294 296 293 292 291 290 289 289 291 290 290 289 288 288 286 284 284 284 284 285 285 286 285 286 286 285 286 287 286 286 285 285 286 284 285 284 286 286 284
294 294 293 295 294 292 291 291 291 290 290 290 289 288 288 288 287 286 285 284 283 282 283 283 284 283 282 284 285 285 285 285 285 285 283 283 283 283 282 283 284 285 283
291 288 291 290 289 289 289 289 289 288 289 289 288 287 287 287 286 285 284 283 283 282 282 283 284 283 282 281 280 280 283 283 282 283 281 279 277 279 282 283 284 284 283
289 288 288 288 288 288 288 288 287 286 288 287 286 286 286 287 286 285 284 285 284 284 284 284 282 282 282 282 280 280 279 279 280 282 279 279 279 278 279 282 282 283 282
291 289 289 288 288 287 286 286 286 287 286 286 286 286 286 285 286 284 283 284 283 283 284 283 283 282 283 281 280 279 279 280 280 280 280 280 280 280 281 283 283 282 281
291 289 289 288 287 286 286 285 286 286 285 285 286 285 285 285 286 284 283 283 282 281 282 282 281 281 281 281 279 277 278 278 280 279 279 278 278 277 278 282 282 282 281
292 291 290 289 287 286 286 285 285 286 285 285 285 285 285 285 285 284 283 282 280 280 280 280 279 280 281 279 279 278 277 277 278 277 278 277 276 277 276 280 282 280 279
292 292 291 289 287 287 286 285 285 285 285 285 284 284 285 285 285 283 282 282 281 279 279 280 281 279 281 279 279 280 279 276 274 277 278 279 278 278 278 278 278 280 279
288 287 288 289 287 287 285 285 284 284 284 284 282 282 284 285 285 283 282 282 281 279 279 280 281 280 281 280 279 278 276 276 278 278 278 278 278 278 278 278 277 277 277
286 286 286 287 287 286 285 284 284 283 283 282 282 281 282 283 284 283 282 280 280 279 279 279 280 281 281 280 278 279 275 278 278 278 277 278 279 279 277 278 278 278 277
286 286 286 286 285 285 285 285 284 283 283 282 281 281 281 281 282 282 282 281 278 277 278 279 280 281 280 280 280 279 281 280 279 279 278 278 278 278 278 279 278 277 277
286 286 285 286 285 284 285 285 284 284 285 283 282 282 280 280 281 281 280 279 278 278 278 277 277 278 277 278 278 278 279 278 278 278 277 277 277 277 277 278 278 277 277
285 285 285 285 285 284 284 283 285 285 285 285 284 283 282 283 283 282 281 280 278 277 276 276 277 277 277 277 277 277 278 276 278 277 277 277 277 276 276 276 277 277 276
285 285 285 284 284 283 283 283 282 284 284 283 283 283 282 282 282 283 283 282 279 277 276 277 277 277 277 276 276 276 276 277 276 276 277 276 276 276 275 275 275 275 274
285 284 284 284 284 284 284 284 284 283 282 281 282 282 282 281 282 283 283 282 278 277 277 277 277 277 276 276 276 275 275 275 275 276 276 276 276 276 275 274 274 274 274
283 283 284 284 284 284 284 284 284 283 282 281 281 281 282 282 281 282 282 280 278 276 276 276 277 276 276 276 277 277 276 276 276 275 275 274 274 275 274 274 274 270 271
285 283 284 285 284 284 284 283 282 281 280 280 280 280 281 281 279 280 281 280 279 278 277 277 277 277 277 276 277 277 276 275 275 275 275 274 274 274 273 273 273 273 272
285 284 283 283 283 283 282 282 282 281 281 281 281 282 281 280 280 280 280 279 279 278 277 277 277 277 277 277 277 277 277 277 276 275 274 273 272 272 273 273 272 272 272
283 282 283 282 282 282 282 282 282 281 281 281 281 281 281 282 281 280 280 279 279 279 279 279 278 279 278 278 278 277 276 276 275 274 274 272 271 272 271 271 271 271 271
282 281 281 281 282 281 281 281 281 281 280 281 280 280 281 281 281 280 280 280 279 279 280 280 279 278 278 277 278 278 276 275 275 275 273 272 271 272 271 270 270 269 269
283 282 281 280 281 281 281 281 281 280 280 281 281 281 281 281 281 280 280 279 279 279 278 277 277 276 276 276 277 277 276 275 275 273 273 272 271 269 270 269 269 268 268
283 282 282 281 281 281 280 281 281 280 280 280 281 280 280 280 280 279 279 278 278 277 276 276 276 275 274 273 274 274 272 271 272 272 272 271 270 269 269 268 268 268 267
283 282 282 282 282 282 281 281 281 280 280 280 280 280 279 279 279 279 278 277 276 275 275 275 275 274 273 273 272 270 268 268 268 269 271 271 269 268 268 267 266 267 266

GFSGL_sfc_thetae_189.txt.gz
Theta_e
312 311 310 307 313 313 308 307 306 304 302 299 299 295 296 296 294 294 294 295 293 295 297 296 297 298 298 301 301 301 302 304 297 297 296 296 295 292 292 293 293 293 288
311 310 306 305 309 306 305 304 302 298 298 296 295 294 293 294 291 291 291 291 291 291 294 295 295 296 297 299 301 301 301 304 296 291 292 293 294 295 294 292 290 291 289
309 306 304 300 300 302 300 300 297 296 295 294 294 292 292 291 290 288 289 289 291 292 293 294 294 295 295 298 300 300 299 298 297 294 292 295 292 292 290 292 292 291 289
307 302 299 295 296 296 297 296 296 295 294 293 292 292 291 290 289 288 288 288 290 292 293 294 294 294 295 297 296 296 296 297 296 295 294 293 291 292 293 289 289 292 289
303 298 294 295 295 295 295 295 295 294 294 293 292 292 291 290 289 289 290 290 289 290 292 292 293 294 295 295 295 294 295 295 295 293 292 293 292 289 290 293 292 290 288
297 290 294 293 292 293 293 294 293 293 292 292 291 290 290 291 289 290 290 289 288 289 288 290 291 291 287 289 289 290 293 294 294 294 293 291 290 291 292 290 291 289 287
295 290 289 289 291 290 292 292 289 288 289 289 288 289 288 289 289 290 289 290 290 289 289 288 287 288 287 287 284 284 284 285 287 295 292 292 288 290 290 289 289 289 289
295 292 289 288 288 286 286 285 285 285 285 285 285 285 285 285 288 288 288 288 288 288 287 287 287 285 288 287 287 287 286 286 286 287 290 288 290 291 291 291 290 289 287
294 291 290 287 285 285 285 285 285 285 285 285 285 285 285 285 286 286 287 287 286 285 286 286 286 286 286 287 284 283 282 282 283 282 282 281 281 281 284 287 288 286 286
295 292 290 290 287 285 285 285 285 285 285 285 285 285 286 285 286 286 287 287 285 285 285 286 285 285 285 285 284 283 281 280 280 280 280 281 282 282 284 286 290 287 287
294 293 291 290 288 287 285 285 285 285 285 285 285 285 286 286 285 287 288 287 286 285 285 284 285 283 283 284 285 285 284 283 281 282 282 282 283 283 283 284 285 287 286
288 288 288 288 286 287 286 285 285 285 285 285 285 285 286 286 285 286 287 287 287 286 285 286 285 283 283 283 284 284 283 283 284 283 282 282 282 283 282 283 282 283 283
287 287 286 285 285 286 285 285 285 285 285 286 286 285 285 286 286 285 285 286 286 287 288 286 283 282 282 281 281 282 282 283 283 282 283 283 285 284 282 281 281 281 280
285 285 285 285 285 285 286 286 285 285 285 286 286 286 284 285 285 286 285 285 283 286 284 283 283 282 282 282 280 280 283 284 283 283 284 285 286 282 281 282 281 281 281
286 285 285 285 285 285 285 286 286 286 287 287 287 287 284 284 285 285 285 284 286 284 284 283 283 282 281 281 280 280 282 282 282 284 284 284 282 282 282 284 283 282 280
285 285 285 285 285 285 285 285 286 286 287 288 288 288 288 287 285 285 285 284 283 282 283 282 282 282 282 281 280 280 281 281 282 283 283 283 281 282 282 282 282 281 280
286 286 285 285 285 285 285 285 282 285 285 286 287 287 286 285 285 284 284 283 282 282 282 282 283 282 282 281 281 281 281 282 283 283 282 282 282 282 281 280 280 280 280
286 285 286 286 287 286 286 285 285 284 283 283 285 285 285 285 284 284 283 282 280 281 281 281 281 281 281 281 281 281 281 282 282 282 282 282 282 281 280 279 280 279 279
286 286 286 286 287 287 287 287 286 286 285 284 284 284 284 284 283 282 282 282 279 280 281 281 282 281 281 281 281 282 283 282 282 281 281 281 281 280 280 279 279 279 278
287 285 286 287 287 287 287 287 286 286 285 284 284 283 284 283 282 281 282 282 281 281 281 281 281 281 281 281 282 282 281 281 280 280 281 281 281 280 279 279 279 278 276
288 287 285 287 287 287 287 287 287 286 285 285 284 285 283 284 283 282 283 282 282 281 281 281 281 282 282 282 281 281 280 281 281 280 280 280 280 278 279 279 278 278 278
288 288 287 287 287 287 287 287 287 286 286 284 283 283 283 285 284 284 284 283 283 283 283 282 282 282 282 282 282 282 281 281 281 281 280 280 279 278 278 278 278 277 277
287 287 287 286 286 286 286 286 286 285 285 284 283 282 284 284 284 284 284 284 284 283 283 283 283 282 283 283 284 283 282 281 282 282 280 279 278 278 278 277 276 276 276
287 286 285 285 286 285 285 285 285 285 284 284 284 284 284 284 284 284 284 284 284 284 284 284 283 282 283 283 283 283 283 283 283 282 281 280 278 277 277 276 276 275 275
287 286 285 285 285 285 285 285 285 285 285 285 284 285 285 284 284 284 284 284 283 283 283 283 283 282 282 281 282 281 281 281 281 280 280 279 277 277 276 275 275 274 273
287 287 286 286 285 285 285 284 284 285 284 284 284 284 285 284 284 284 284 283 283 283 282 282 281 280 280 281 280 279 278 278 278 278 278 278 276 276 275 274 273 273 273

GFSGL_sfc_thetae_195.txt.gz
Theta_e
299 300 300 302 303 303 304 305 305 306 304 303 304 305 308 310 311 308 307 307 305 303 302 301 300 299 300 301 299 299 298 296 291 293 292 290 290 289 288 286 288 286 287
299 300 301 303 301 303 302 302 304 302 301 301 302 303 305 309 308 304 305 303 302 300 298 298 297 299 298 298 300 299 298 296 293 290 290 290 289 289 287 286 286 287 286
299 299 299 301 299 300 299 299 300 299 298 300 302 305 306 305 303 302 302 300 299 298 298 297 296 296 295 296 297 297 297 297 294 292 290 290 289 288 286 287 286 284 286
298 298 298 299 300 298 297 297 297 297 297 298 298 297 298 298 299 299 298 297 297 296 296 295 295 296 295 295 296 296 294 293 292 291 289 287 287 288 288 285 282 282 282
296 297 297 299 298 296 295 295 295 295 295 294 295 295 295 295 295 295 295 294 293 293 293 294 294 296 296 295 296 295 293 291 290 289 288 287 286 286 285 285 282 282 281
294 295 298 296 294 294 294 293 293 292 292 291 291 291 291 293 292 293 293 292 292 291 291 292 293 295 294 294 293 293 293 290 289 288 288 286 286 286 286 286 284 281 279
295 293 292 292 289 290 292 291 290 287 289 288 288 287 286 288 290 291 290 290 288 289 288 288 290 292 291 289 288 288 289 290 291 291 288 288 286 286 286 285 284 282 279
293 293 293 292 290 287 286 286 287 285 285 285 285 285 285 285 288 288 287 286 286 286 286 287 287 288 287 286 285 284 284 285 286 287 290 288 286 288 288 287 286 280 279
291 291 291 290 289 286 286 285 285 285 285 285 285 285 285 285 287 287 286 285 285 285 285 286 286 286 288 289 285 281 280 282 287 289 288 288 288 289 288 284 282 281 278
289 289 289 290 290 285 285 285 285 285 284 285 284 285 286 285 287 287 286 285 284 284 285 285 287 287 287 286 283 281 279 277 280 279 281 281 283 285 286 283 283 281 277
287 287 288 289 288 286 285 285 285 285 285 284 284 284 285 285 285 287 287 285 284 283 283 283 284 287 286 286 284 282 279 276 276 278 278 277 277 277 277 278 276 282 276
285 286 286 286 286 285 285 285 285 285 284 283 283 283 284 284 285 286 286 285 285 283 282 283 285 286 286 284 282 282 280 277 277 277 276 274 275 276 274 276 274 274 274
285 285 285 285 285 285 285 285 284 285 284 283 282 282 282 284 284 286 285 285 284 283 283 284 285 285 285 283 283 282 279 278 277 276 276 272 272 275 276 276 277 278 278
285 285 285 285 285 285 285 285 285 285 284 283 282 281 282 283 284 284 284 284 283 282 283 283 282 281 282 281 281 279 279 279 278 277 278 278 278 277 276 276 275 276 275
285 285 285 285 285 284 284 285 285 285 286 284 283 282 282 281 283 285 284 283 282 282 281 280 279 279 279 279 279 278 278 279 279 278 280 279 278 278 277 277 277 277 276
285 284 284 285 285 285 284 283 285 286 286 286 285 285 284 285 285 286 286 285 283 282 279 277 277 277 277 277 277 276 276 278 278 279 280 279 279 278 278 278 279 278 277
284 285 285 285 285 284 284 283 282 284 285 285 285 286 285 285 286 286 285 284 283 281 278 277 277 277 277 277 277 277 278 278 279 279 280 280 280 279 278 279 279 279 278
285 284 285 285 284 284 284 284 284 283 282 282 285 285 285 285 286 285 284 283 280 280 279 278 278 279 278 278 278 277 278 278 277 277 278 279 279 279 278 279 279 277 277
284 283 284 285 284 284 284 284 283 283 282 282 283 283 284 285 285 284 284 280 279 279 279 279 280 279 279 279 279 279 278 277 277 276 278 278 277 278 278 277 277 276 276
285 285 284 284 285 284 284 283 282 282 281 281 281 281 282 282 281 279 280 280 279 278 279 279 279 279 278 279 279 279 279 279 278 278 277 279 279 278 276 276 276 275 276
284 284 284 285 284 284 283 283 282 280 281 280 279 280 280 279 279 279 279 278 278 279 278 277 276 279 279 279 278 278 278 278 278 278 278 278 279 277 277 276 275 275 276
284 284 284 284 284 283 284 284 282 281 280 279 279 280 279 279 278 279 278 279 278 278 277 277 278 278 279 279 279 279 279 278 278 278 278 277 277 276 275 274 274 273 274
284 283 283 284 284 284 283 283 282 279 280 280 279 278 278 275 275 277 275 277 277 277 278 279 278 279 279 280 280 280 278 278 278 279 277 277 275 275 274 273 273 273 272
283 283 283 283 283 283 283 282 281 281 281 280 279 279 279 280 280 278 279 278 278 278 278 279 280 279 279 280 279 278 278 278 278 278 278 276 275 275 273 272 273 271 272
283 282 282 283 282 282 283 282 282 281 281 281 279 278 277 279 280 279 280 280 278 278 278 278 278 278 278 277 277 277 278 278 277 278 278 276 274 273 272 270 269 269 269
284 283 281 282 283 282 282 282 282 282 280 280 279 278 278 278 279 279 277 277 277 277 277 277 277 276 276 276 276 276 276 276 275 275 275 274 273 270 270 270 270 270 269